1514725200.89,4907,7.0,72798.5,-2.63,-4.29,-4.21,0,*65
1514725202.11,4908,7.0,72798.5,-2.63,-4.33,-4.29,0,*69
1514725203.34,4909,7.0,72806.0,-2.63,-4.33,-4.29,0,*68
1514725204.55,4910,7.06,72806.5,-2.63,-4.45,-4.29,0,*61
1514725205.76,4911,7.06,72806.3,-2.67,-4.49,-4.49,0,*6E
1514725206.98,4912,7.06,72804.0,-2.67,-4.25,-4.33,0,*6A
1514725208.2,4913,7.0,72796.8,-2.67,-4.33,-4.33,0,*6C
1514725209.42,4914,7.06,72778.8,-2.67,-4.33,-4.33,0,*6B
1514725210.64,4915,7.06,72774.8,-2.67,-4.25,-4.25,0,*6A
1514725211.83,4916,7.06,72774.3,-2.65,-4.29,-4.29,0,*6B
1514725213.05,4917,7.06,72770.3,-2.67,-4.37,-4.37,0,*68
1514725214.26,4918,7.06,72774.5,-2.67,-4.37,-4.33,0,*63
1514725215.48,4919,7.06,72774.5,-2.67,-4.41,-4.41,0,*66
1514725216.69,4920,7.0,72776.8,-2.67,-4.41,-4.41,0,*6C
1514725217.92,4921,7.0,72782.3,-2.67,-4.33,-4.25,0,*6A
1514725219.12,4922,7.0,72774.3,-2.69,-4.33,-4.33,0,*60
1514725220.32,4923,7.06,72788.0,-2.69,-4.25,-4.25,0,*61
1514725221.52,4924,7.0,72784.0,-2.69,-4.25,-4.25,0,*66
1514725222.72,4925,7.0,72778.5,-2.69,-4.25,-4.25,0,*67
1514725223.92,4926,7.0,72778.5,-2.69,-4.49,-4.49,0,*64
1514725225.11,4927,7.0,72778.8,-2.69,-4.41,-4.37,0,*64
1514725226.32,4928,7.0,72778.0,-2.69,-4.25,-4.21,0,*6E
1514725227.55,4929,7.0,72776.3,-2.69,-4.21,-4.01,0,*69
1514725228.8,4930,7.0,72780.8,-2.69,-4.01,-4.01,0,*63
1514725230.05,4931,7.0,72786.3,-2.67,-4.01,-3.95,0,*66
1514725231.26,4932,7.0,72790.5,-2.67,-4.13,-4.09,0,*64
1514725232.48,4933,7.06,72798.3,-2.73,-4.17,-4.01,0,*6C
1514725233.72,4934,7.0,72800.8,-2.67,-4.09,-4.01,0,*61
1514725234.91,4935,7.06,72814.0,-2.65,-4.17,-4.09,0,*65
1514725236.1,4936,7.06,72802.3,-2.69,-4.37,-4.33,0,*61
1514725237.29,4937,7.06,72788.8,-2.69,-4.53,-4.41,0,*67
1514725238.49,4938,7.06,72792.8,-2.69,-4.53,-4.49,0,*60
1514725239.68,4939,7.0,72784.3,-2.69,-4.49,-4.49,0,*6A
1514725240.88,4940,7.06,72784.8,-2.69,-4.65,-4.53,0,*61
1514725242.08,4941,7.06,72786.3,-2.69,-4.41,-4.37,0,*64
1514725243.28,4942,7.0,72800.3,-2.69,-4.25,-4.25,0,*66
1514725244.47,4943,7.06,72802.8,-2.73,-4.29,-4.25,0,*60
1514725245.67,4944,7.06,72792.8,-2.73,-4.29,-4.25,0,*67
1514725246.85,4945,7.06,72788.3,-2.73,-4.45,-4.45,0,*6A
1514725248.05,4946,7.0,72784.0,-2.69,-4.33,-4.25,0,*65
1514725249.26,4947,7.0,72784.8,-2.69,-4.21,-4.25,0,*67
1514725250.45,4948,7.0,72800.8,-2.73,-4.41,-4.29,0,*69
1514725251.65,4949,7.0,72798.3,-2.69,-4.13,-4.13,0,*6D
1514725252.84,4950,7.0,72784.5,-2.73,-4.25,-4.17,0,*6F
1514725254.03,4951,7.0,72790.3,-2.73,-4.13,-4.13,0,*6F
1514725255.22,4952,7.0,72790.5,-2.73,-4.13,-4.13,0,*6C
1514725256.44,4953,7.06,72786.3,-2.75,-4.05,-4.13,0,*6C
1514725257.66,4954,7.06,72778.3,-2.75,-4.25,-4.17,0,*6D
1514725258.85,4955,7.0,72770.0,-2.73,-4.17,-4.17,0,*6B
1514725260.04,4956,7.0,72754.5,-2.73,-4.25,-4.17,0,*69
1514725261.23,4957,7.0,72768.8,-2.73,-4.29,-4.37,0,*66
1514725262.43,4958,7.0,72778.8,-2.73,-4.29,-4.29,0,*66
1514725263.62,4959,7.0,72770.0,-2.73,-4.29,-4.29,0,*67
1514725264.82,4960,7.06,72758.0,-2.73,-4.25,-4.25,0,*6D
1514725266.01,4961,7.0,72760.0,-2.73,-4.29,-4.17,0,*61
1514725267.23,4962,7.0,72774.3,-2.75,-4.29,-4.25,0,*65
1514725268.45,4963,7.0,72788.0,-2.75,-4.29,-4.25,0,*64
1514725269.67,4964,7.0,72794.8,-2.75,-4.37,-4.37,0,*6F
1514725270.9,4965,7.06,72786.8,-2.75,-4.25,-4.25,0,*6E
1514725272.08,4966,7.0,72776.0,-2.73,-4.17,-4.17,0,*6B
1514725273.28,4967,7.0,72766.8,-2.73,-4.25,-4.25,0,*6A
1514725274.5,4968,7.06,72764.8,-2.75,-4.17,-4.17,0,*63
1514725275.71,4969,7.06,72764.0,-2.75,-4.17,-4.17,0,*62
1514725276.94,4970,7.06,72770.3,-2.75,-4.25,-4.25,0,*6A
1514725278.16,4971,7.06,72774.3,-2.75,-4.17,-4.13,0,*6F
1514725279.38,4972,7.0,72756.8,-2.75,-4.13,-4.05,0,*6F
1514725280.6,4973,7.06,72758.5,-2.75,-4.13,-4.05,0,*6E
1514725281.82,4974,7.06,72766.8,-2.75,-4.13,-4.17,0,*6A
1514725283.01,4975,7.06,72766.5,-2.73,-4.25,-4.17,0,*68
1514725284.2,4976,7.0,72768.3,-2.73,-4.17,-4.25,0,*6B
1514725285.41,4977,7.0,72774.5,-2.75,-4.17,-4.17,0,*6D
1514725286.64,4978,7.06,72778.5,-2.75,-4.17,-4.13,0,*66
1514725287.86,4979,7.0,72778.0,-2.75,-4.05,-3.91,0,*69
1514725289.08,4980,7.0,72774.8,-2.73,-4.01,-4.05,0,*67
1514725290.27,4981,7.06,72782.8,-2.73,-4.05,-3.91,0,*68
1514725291.46,4982,7.0,72784.3,-2.73,-4.17,-4.05,0,*62
1514725292.72,4983,7.0,72786.0,-2.69,-4.01,-4.01,0,*6B
1514725293.9,4984,7.0,72786.5,-2.73,-4.13,-4.17,0,*63
1514725295.15,4985,7.0,72788.3,-2.73,-4.01,-4.01,0,*66
1514725296.4,4986,7.06,72796.0,-2.73,-4.01,-4.01,0,*65
1514725297.58,4987,7.0,72800.0,-2.73,-4.17,-4.17,0,*64
1514725298.81,4988,7.0,72802.8,-2.69,-4.01,-3.95,0,*6A
1514725300.03,4989,7.0,72796.0,-2.73,-4.01,-3.91,0,*64
1514725301.23,4990,7.06,72794.8,-2.69,-4.13,-4.09,0,*62
1514725302.43,4991,7.06,72790.0,-2.69,-4.21,-4.13,0,*69
1514725303.63,4992,7.06,72788.8,-2.73,-4.17,-4.25,0,*61
1514725304.82,4993,7.06,72780.3,-2.73,-4.25,-4.25,0,*61
1514725306.02,4994,7.06,72782.0,-2.69,-4.13,-4.09,0,*66
1514725307.25,4995,7.06,72774.5,-2.69,-4.01,-3.95,0,*66
1514725308.47,4996,7.0,72766.8,-2.69,-4.01,-3.91,0,*61
1514725309.67,4997,7.0,72760.8,-2.69,-4.09,-3.95,0,*6C
1514725310.86,4998,7.06,72764.3,-2.69,-4.09,-3.95,0,*63
1514725312.07,4999,7.0,72766.0,-2.69,-4.13,-4.21,0,*61
1514725313.27,5000,7.0,72770.3,-2.69,-4.21,-4.25,0,*6C
1514725314.47,5001,7.0,72774.8,-2.69,-4.13,-4.25,0,*6C
1514725315.68,5002,7.0,72774.5,-2.69,-4.21,-4.21,0,*6A
1514725316.87,5003,7.0,72776.8,-2.73,-4.17,-4.17,0,*60
1514725318.12,5004,7.06,72750.0,-2.69,-4.01,-4.01,0,*6C
1514725319.32,5005,7.06,72764.8,-2.69,-3.95,-3.87,0,*6E
1514725320.57,5006,7.06,72762.0,-2.69,-4.01,-4.01,0,*6E
1514725321.77,5007,7.0,72762.5,-2.69,-4.13,-4.13,0,*6F
1514725322.96,5008,7.06,72784.3,-2.73,-4.13,-4.05,0,*6C
1514725324.16,5009,7.06,72788.5,-2.69,-3.87,-3.75,0,*6C
1514725325.36,5010,7.06,72782.5,-2.73,-3.83,-3.75,0,*6B
1514725326.56,5011,7.0,72772.3,-2.69,-3.87,-3.83,0,*6C
1514725327.76,5012,7.0,72766.8,-2.69,-3.87,-3.83,0,*6F
1514725328.95,5013,7.0,72774.3,-2.69,-3.87,-3.83,0,*6E
1514725330.15,5014,7.0,72778.0,-2.69,-4.13,-4.09,0,*66
1514725331.35,5015,7.0,72782.5,-2.69,-4.41,-4.37,0,*6D
1514725332.54,5016,7.0,72782.5,-2.69,-4.49,-4.49,0,*6F
1514725333.74,5017,7.0,72778.8,-2.69,-4.37,-4.37,0,*6E
1514725334.94,5018,7.0,72778.3,-2.69,-4.33,-4.25,0,*66
1514725336.14,5019,7.0,72782.0,-2.69,-4.33,-4.25,0,*67
1514725337.34,5020,7.0,72790.0,-2.69,-4.25,-4.25,0,*6A
1514725338.55,5021,7.0,72794.8,-2.69,-4.25,-4.21,0,*6F
1514725339.75,5022,7.06,72792.0,-2.69,-4.25,-4.13,0,*6D
1514725340.95,5023,7.06,72802.8,-2.69,-4.29,-4.25,0,*65
1514725342.16,5024,7.06,72792.0,-2.69,-4.21,-4.21,0,*6E
1514725343.36,5025,7.06,72798.8,-2.69,-4.33,-4.25,0,*68
1514725344.56,5026,7.0,72794.3,-2.69,-4.33,-4.33,0,*6C
1514725345.75,5027,7.06,72800.8,-2.73,-4.45,-4.41,0,*62
1514725346.94,5028,7.0,72790.8,-2.69,-4.41,-4.41,0,*62
1514725348.14,5029,7.06,72794.8,-2.69,-4.41,-4.41,0,*63
1514725349.33,5030,7.06,72790.3,-2.73,-4.29,-4.29,0,*60
1514725350.53,5031,7.0,72782.3,-2.73,-4.29,-4.25,0,*6D
1514725351.72,5032,7.06,72782.8,-2.73,-4.29,-4.25,0,*6E
1514725352.91,5033,7.0,72780.0,-2.73,-4.25,-4.17,0,*62
1514725354.1,5034,7.06,72792.5,-2.73,-4.13,-4.13,0,*64
1514725355.32,5035,7.06,72784.5,-2.73,-4.05,-4.01,0,*61
1514725356.52,5036,7.0,72776.8,-2.73,-4.21,-4.21,0,*66
1514725357.72,5037,7.06,72768.0,-2.69,-4.37,-4.29,0,*63
1514725358.91,5038,7.06,72772.3,-2.73,-4.29,-4.29,0,*68
1514725360.1,5039,7.06,72778.8,-2.73,-4.41,-4.41,0,*69
1514725361.3,5040,7.0,72772.3,-2.73,-4.57,-4.53,0,*63
1514725362.49,5041,7.0,72762.0,-2.69,-4.37,-4.37,0,*6D
1514725363.68,5042,7.06,72764.5,-2.73,-4.41,-4.37,0,*64
1514725364.9,5043,7.06,72774.5,-2.75,-4.41,-4.41,0,*62
1514725366.12,5044,7.06,72764.8,-2.75,-4.41,-4.41,0,*65
1514725367.34,5045,7.0,72762.3,-2.75,-4.25,-4.17,0,*65
1514725368.57,5046,7.06,72762.5,-2.75,-4.25,-4.25,0,*67
1514725369.79,5047,7.06,72758.8,-2.75,-4.37,-4.37,0,*66
1514725370.98,5048,7.06,72764.0,-2.73,-4.25,-4.25,0,*6F
1514725372.18,5049,7.06,72772.5,-2.73,-4.05,-4.13,0,*69
1514725373.39,5050,7.06,72776.3,-2.73,-4.05,-4.01,0,*62
1514725374.6,5051,7.06,72776.8,-2.69,-4.21,-4.21,0,*6C
1514725375.79,5052,7.0,72764.0,-2.73,-4.53,-4.45,0,*63
1514725376.98,5053,7.06,72758.3,-2.73,-4.57,-4.53,0,*61
1514725378.16,5054,7.0,72754.8,-2.73,-4.45,-4.45,0,*62
1514725379.35,5055,7.06,72762.8,-2.73,-4.37,-4.29,0,*6C
1514725380.54,5056,7.06,72764.8,-2.73,-4.13,-4.13,0,*60
1514725381.73,5057,7.06,72766.8,-2.73,-4.13,-4.05,0,*66
1514725382.95,5058,7.06,72768.3,-2.75,-4.13,-4.05,0,*6F
1514725384.18,5059,7.06,72776.8,-2.73,-4.01,-3.91,0,*61
1514725385.37,5060,7.0,72774.0,-2.73,-4.17,-4.13,0,*61
1514725386.56,5061,7.06,72778.3,-2.73,-4.17,-4.17,0,*64
1514725387.77,5062,7.0,72778.0,-2.73,-4.05,-4.01,0,*63
1514725388.99,5063,7.0,72788.0,-2.69,-4.09,-4.01,0,*65
1514725390.24,5064,7.06,72792.0,-2.69,-4.01,-4.01,0,*6A
1514725391.46,5065,7.06,72798.3,-2.73,-4.05,-4.01,0,*64
1514725392.66,5066,7.06,72798.3,-2.69,-4.09,-3.95,0,*6A
1514725393.88,5067,7.06,72798.8,-2.69,-4.01,-3.87,0,*60
1514725395.08,5068,7.06,72810.0,-2.69,-3.95,-3.95,0,*66
1514725396.31,5069,7.0,72786.3,-2.69,-4.01,-3.95,0,*6D
1514725397.51,5070,7.06,72792.3,-2.69,-4.21,-4.13,0,*6E
1514725398.7,5071,7.06,72796.8,-2.73,-4.37,-4.37,0,*65
1514725399.89,5072,7.0,72796.5,-2.69,-4.37,-4.33,0,*69
1514725401.1,5073,7.0,72794.8,-2.69,-4.25,-4.25,0,*6C
1514725402.29,5074,7.06,72794.3,-2.73,-4.29,-4.29,0,*60
1514725403.48,5075,7.06,72804.0,-2.73,-4.17,-4.17,0,*61
1514725404.68,5076,7.0,72806.0,-2.69,-4.13,-4.21,0,*68
1514725405.88,5077,7.06,72812.3,-2.69,-4.13,-4.13,0,*68
1514725407.08,5078,7.0,72806.0,-2.69,-4.21,-4.13,0,*66
1514725408.31,5079,7.06,72808.0,-2.69,-4.09,-4.01,0,*6E
1514725409.58,5080,7.0,72794.0,-2.67,-4.01,-4.01,0,*6E
1514725410.8,5081,7.0,72794.5,-2.69,-4.09,-4.01,0,*69
1514725412.02,5082,7.06,72800.3,-2.69,-4.09,-4.01,0,*6A
1514725413.22,5083,7.06,72804.0,-2.69,-4.09,-4.09,0,*63
1514725414.43,5084,7.0,72792.5,-2.69,-4.21,-4.21,0,*64
1514725415.62,5085,7.06,72788.0,-2.69,-4.13,-4.13,0,*65
1514725416.83,5086,7.06,72786.0,-2.69,-4.21,-4.21,0,*66
1514725418.03,5087,7.0,72754.5,-2.69,-4.41,-4.37,0,*66
1514725419.23,5088,7.06,72754.5,-2.73,-4.29,-4.25,0,*6F
1514725420.43,5089,7.06,72762.8,-2.69,-4.25,-4.13,0,*6C
1514725421.64,5090,7.06,72772.8,-2.69,-4.21,-4.21,0,*61
1514725422.84,5091,7.06,72786.3,-2.69,-4.25,-4.21,0,*64
1514725424.04,5092,7.06,72790.0,-2.73,-4.29,-4.25,0,*64
1514725425.24,5093,7.06,72794.3,-2.69,-4.25,-4.25,0,*62
1514725426.46,5094,7.06,72796.0,-2.69,-4.09,-4.01,0,*6D
1514725427.65,5095,7.06,72796.5,-2.73,-4.25,-4.17,0,*6E
1514725428.85,5096,7.06,72792.8,-2.69,-4.25,-4.13,0,*62
1514725430.06,5097,7.06,72784.5,-2.69,-4.13,-4.21,0,*67
1514725431.27,5098,7.06,72782.0,-2.69,-4.21,-4.21,0,*69
1514725432.47,5099,7.06,72782.5,-2.69,-4.21,-4.13,0,*69
1514725433.66,5100,7.06,72786.0,-2.73,-4.25,-4.17,0,*63
1514725434.88,5101,7.0,72784.8,-2.69,-4.13,-4.01,0,*6B
1514725436.11,5102,7.0,72788.0,-2.69,-4.01,-3.87,0,*62
1514725437.34,5103,7.0,72800.8,-2.69,-4.01,-3.95,0,*60
1514725438.56,5104,7.0,72804.3,-2.69,-4.01,-3.87,0,*64
1514725439.76,5105,7.06,72814.5,-2.69,-4.21,-4.09,0,*66
1514725440.97,5106,7.06,72796.8,-2.69,-4.21,-4.21,0,*6F
1514725442.18,5107,7.0,72768.0,-2.69,-4.21,-4.21,0,*6E
1514725443.38,5108,7.0,72774.0,-2.69,-4.13,-4.09,0,*6A
1514725444.59,5109,7.0,72776.5,-2.69,-4.21,-4.21,0,*60
1514725445.79,5110,7.06,72774.5,-2.69,-4.25,-4.25,0,*68
1514725447.0,5111,7.06,72772.0,-2.69,-4.21,-4.21,0,*69
1514725448.2,5112,7.0,72768.0,-2.69,-4.25,-4.25,0,*6A
1514725449.41,5113,7.06,72768.0,-2.69,-4.25,-4.25,0,*6B
1514725450.6,5114,7.0,72760.8,-2.73,-4.21,-4.13,0,*66
1514725451.79,5115,7.06,72758.8,-2.73,-4.13,-4.09,0,*6D
1514725452.99,5116,7.06,72766.0,-2.69,-3.95,-3.87,0,*6D
1514725454.19,5117,7.0,72778.0,-2.69,-3.87,-3.83,0,*6B
1514725455.39,5118,7.06,72790.0,-2.69,-3.87,-3.75,0,*6D
1514725456.61,5119,7.06,72780.0,-2.67,-4.13,-4.09,0,*64
1514725457.86,5120,7.06,72768.5,-2.67,-3.95,-4.01,0,*6F
1514725459.05,5121,7.06,72774.8,-2.69,-4.09,-4.09,0,*6A
1514725460.25,5122,7.06,72774.0,-2.69,-4.09,-4.09,0,*69
1514725461.49,5123,7.06,72780.3,-2.67,-4.09,-4.01,0,*6E
1514725462.76,5124,7.06,72792.3,-2.67,-4.01,-4.01,0,*61
1514725463.99,5125,7.06,72784.0,-2.67,-4.21,-4.21,0,*60
1514725465.21,5126,7.06,72772.5,-2.67,-4.13,-4.13,0,*63
1514725466.45,5127,7.06,72780.0,-2.67,-4.09,-4.01,0,*6A
1514725467.7,5128,7.06,72788.3,-2.67,-4.01,-3.95,0,*67
1514725468.91,5129,7.06,72790.3,-2.67,-4.09,-4.09,0,*6C
1514725470.16,5130,7.06,72780.5,-2.67,-4.09,-4.01,0,*6C
1514725471.4,5131,7.06,72790.3,-2.67,-4.13,-4.01,0,*66
1514725472.64,5132,7.0,72794.8,-2.67,-4.09,-4.01,0,*6E
1514725473.83,5133,7.0,72798.5,-2.65,-4.09,-4.09,0,*65
1514725475.02,5134,7.06,72804.8,-2.65,-4.05,-3.95,0,*6C
1514725476.24,5135,7.0,72802.5,-2.67,-3.95,-3.83,0,*66
1514725477.46,5136,7.06,72792.3,-2.67,-3.87,-3.75,0,*6F
1514725478.66,5137,7.06,72790.0,-2.65,-3.91,-3.91,0,*61
1514725479.88,5138,7.06,72782.8,-2.67,-4.21,-4.13,0,*6D
1514725481.11,5139,7.06,72784.3,-2.67,-4.13,-4.21,0,*6C
1514725482.34,5140,7.0,72790.5,-2.67,-4.21,-4.21,0,*63
1514725483.55,5141,7.0,72788.3,-2.67,-4.13,-4.13,0,*62
1514725484.77,5142,7.06,72790.0,-2.67,-4.09,-4.09,0,*61
1514725485.99,5143,7.06,72790.0,-2.67,-4.09,-4.09,0,*60
1514725487.17,5144,7.06,72780.0,-2.65,-4.17,-4.17,0,*65
1514725488.39,5145,7.06,72774.5,-2.67,-4.25,-4.25,0,*66
1514725489.6,5146,7.0,72764.5,-2.65,-4.21,-4.21,0,*67
1514725490.82,5147,7.0,72766.8,-2.67,-4.33,-4.33,0,*64
1514725492.05,5148,7.06,72766.8,-2.67,-4.21,-4.21,0,*6B
1514725493.29,5149,7.06,72772.5,-2.67,-4.09,-4.01,0,*62
1514725494.47,5150,7.06,72770.5,-2.65,-4.17,-4.17,0,*60
1514725495.69,5151,7.06,72780.8,-2.67,-4.13,-4.09,0,*68
1514725496.91,5152,7.06,72782.0,-2.67,-3.95,-3.95,0,*60
1514725498.16,5153,7.06,72772.8,-2.67,-4.01,-3.95,0,*6B
1514725499.38,5154,7.06,72768.3,-2.67,-4.13,-4.13,0,*66
1514725500.62,5155,7.0,72768.3,-2.67,-4.13,-4.01,0,*64
1514725501.84,5156,7.0,72764.0,-2.67,-4.13,-4.13,0,*64
1514725503.11,5157,7.06,72768.3,-2.67,-4.01,-4.01,0,*65
1514725504.36,5158,7.06,72762.0,-2.67,-4.01,-3.95,0,*60
1514725505.63,5159,7.06,72768.8,-2.67,-4.01,-4.01,0,*6B
1514725506.82,5160,7.0,72770.3,-2.65,-4.05,-4.05,0,*63
1514725508.06,5161,7.06,72794.5,-2.67,-4.09,-4.01,0,*68
1514725509.26,5162,7.0,72798.8,-2.65,-3.95,-3.83,0,*66
1514725510.46,5163,7.06,72790.3,-2.65,-3.91,-3.91,0,*60
1514725511.64,5164,7.06,72776.3,-2.65,-4.05,-3.95,0,*69
1514725512.83,5165,7.06,72766.5,-2.65,-4.05,-4.05,0,*66
1514725514.02,5166,7.06,72778.0,-2.65,-4.17,-4.09,0,*6A
1514725515.21,5167,7.06,72798.3,-2.65,-4.17,-4.09,0,*6B
1514725516.43,5168,7.06,72814.5,-2.67,-4.21,-4.09,0,*63
1514725517.62,5169,7.06,72808.0,-2.65,-4.05,-4.05,0,*6A
1514725518.87,5170,7.06,72802.3,-2.67,-4.01,-4.05,0,*64
1514725520.09,5171,7.06,72804.0,-2.63,-4.09,-4.09,0,*65
1514725521.31,5172,7.06,72824.5,-2.67,-4.21,-4.09,0,*68
1514725522.5,5173,7.06,72828.5,-2.65,-4.09,-4.09,0,*61
1514725523.69,5174,7.06,72818.3,-2.65,-4.09,-4.09,0,*66
1514725524.88,5175,7.06,72804.5,-2.65,-3.95,-3.95,0,*67
1514725526.08,5176,7.06,72806.8,-2.65,-3.91,-3.83,0,*67
1514725527.28,5177,7.0,72838.3,-2.65,-3.95,-3.95,0,*65
1514725528.5,5178,7.0,72824.5,-2.67,-4.33,-4.37,0,*6C
1514725529.71,5179,7.0,72824.8,-2.67,-4.37,-4.37,0,*69
1514725530.93,5180,7.06,72820.3,-2.67,-4.09,-4.13,0,*64
1514725532.12,5181,7.06,72816.0,-2.65,-4.05,-3.95,0,*62
1514725533.34,5182,7.06,72832.5,-2.67,-4.09,-3.95,0,*6F
1514725534.53,5183,7.06,72840.3,-2.65,-4.09,-4.09,0,*6E
1514725535.75,5184,7.06,72838.0,-2.67,-4.33,-4.21,0,*68
1514725536.94,5185,7.06,72822.5,-2.65,-4.37,-4.41,0,*69
1514725538.15,5186,7.06,72812.8,-2.67,-4.41,-4.41,0,*69
1514725539.37,5187,7.06,72812.3,-2.67,-4.49,-4.41,0,*60
1514725540.59,5188,7.06,72806.8,-2.67,-4.33,-4.25,0,*60
1514725541.81,5189,7.06,72814.3,-2.67,-4.33,-4.33,0,*66
1514725543.03,5190,7.06,72804.5,-2.67,-4.25,-4.25,0,*6E
1514725544.25,5191,7.06,72804.3,-2.67,-4.33,-4.25,0,*68
1514725545.48,5192,7.06,72800.5,-2.67,-4.25,-4.25,0,*6C
1514725546.7,5193,7.06,72798.0,-2.67,-4.25,-4.25,0,*6D
1514725547.91,5194,7.06,72792.8,-2.67,-4.37,-4.37,0,*6A
1514725549.14,5195,7.06,72780.5,-2.67,-4.21,-4.13,0,*6A
1514725550.38,5196,7.06,72778.0,-2.67,-4.13,-4.01,0,*6B
1514725551.6,5197,7.06,72780.0,-2.67,-4.13,-4.09,0,*62
1514725552.87,5198,7.06,72784.8,-2.67,-4.01,-4.01,0,*66
1514725554.09,5199,7.06,72784.5,-2.67,-3.87,-3.87,0,*67
1514725555.34,5200,7.06,72792.0,-2.67,-4.01,-4.09,0,*6C
1514725556.58,5201,7.06,72794.0,-2.67,-4.01,-3.87,0,*6C
1514725557.77,5202,7.06,72796.3,-2.65,-3.95,-3.95,0,*64
1514725558.99,5203,7.06,72798.3,-2.67,-4.09,-3.95,0,*65
1514725560.18,5204,7.06,72798.3,-2.65,-4.05,-3.91,0,*68
1514725561.42,5205,7.0,72796.8,-2.67,-4.13,-4.01,0,*62
1514725562.62,5206,7.06,72800.5,-2.65,-3.95,-3.83,0,*67
1514725563.81,5207,7.06,72802.8,-2.65,-3.95,-3.95,0,*61
1514725565.01,5208,7.06,72798.8,-2.65,-3.95,-4.05,0,*60
1514725566.2,5209,7.06,72794.8,-2.65,-4.05,-3.95,0,*61
1514725567.39,5210,7.06,72792.5,-2.65,-4.09,-4.05,0,*6B
1514725568.57,5211,7.06,72798.3,-2.65,-4.09,-3.95,0,*64
1514725569.77,5212,7.06,72800.5,-2.65,-3.83,-3.79,0,*60
1514725570.97,5213,7.06,72802.3,-2.65,-3.91,-3.79,0,*62
1514725572.19,5214,7.0,72804.0,-2.65,-3.79,-3.67,0,*6C
1514725573.4,5215,7.06,72812.3,-2.65,-3.79,-3.71,0,*6A
1514725574.62,5216,7.06,72812.8,-2.63,-4.29,-4.17,0,*6A
1514725575.81,5217,7.06,72824.8,-2.65,-4.29,-4.21,0,*68
1514725577.04,5218,7.06,72834.0,-2.63,-4.21,-4.21,0,*69
1514725578.24,5219,7.06,72834.3,-2.65,-3.95,-3.95,0,*6E
1514725579.49,5220,7.06,72842.3,-2.67,-4.01,-3.87,0,*6F
1514725580.68,5221,7.06,72846.8,-2.65,-4.05,-4.05,0,*65
1514725581.89,5222,7.06,72846.3,-2.63,-4.09,-4.09,0,*60
1514725583.1,5223,7.06,72816.5,-2.63,-4.17,-4.17,0,*61
1514725584.33,5224,7.06,72802.8,-2.63,-4.21,-4.21,0,*66
1514725585.53,5225,7.06,72792.8,-2.65,-4.29,-4.29,0,*61
1514725586.72,5226,7.06,72778.8,-2.65,-4.33,-4.33,0,*62
1514725587.91,5227,7.06,72788.0,-2.65,-4.29,-4.33,0,*68
1514725589.11,5228,7.06,72790.5,-2.65,-4.33,-4.37,0,*68
1514725590.33,5229,7.06,72790.5,-2.63,-4.29,-4.21,0,*63
1514725591.53,5230,7.06,72794.3,-2.65,-4.21,-4.21,0,*65
1514725592.72,5231,7.06,72798.3,-2.65,-4.17,-4.09,0,*6B
1514725593.94,5232,7.06,72796.5,-2.67,-3.95,-3.95,0,*65
1514725595.19,5233,7.06,72792.0,-2.67,-4.01,-3.87,0,*6D
1514725596.39,5234,7.06,72802.5,-2.65,-3.91,-3.91,0,*61
1514725597.6,5235,7.06,72800.0,-2.67,-4.09,-3.95,0,*60
1514725598.8,5236,7.06,72802.0,-2.65,-4.21,-4.17,0,*66
1514725600.01,5237,7.06,72806.3,-2.67,-4.25,-4.17,0,*61
1514725601.21,5238,7.06,72800.3,-2.65,-4.09,-4.13,0,*66
1514725602.43,5239,7.06,72786.5,-2.67,-4.13,-4.21,0,*6F
1514725603.62,5240,7.06,72776.3,-2.65,-4.05,-4.05,0,*62
1514725604.81,5241,7.06,72768.8,-2.65,-3.95,-3.83,0,*64
1514725606.01,5242,7.06,72780.3,-2.65,-3.91,-3.83,0,*63
1514725607.21,5243,7.06,72798.0,-2.65,-3.91,-3.83,0,*62
1514725608.43,5244,7.06,72806.5,-2.67,-3.95,-3.87,0,*67
1514725609.64,5245,7.06,72816.8,-2.63,-4.05,-4.05,0,*61
1514725610.86,5246,7.06,72812.8,-2.63,-4.17,-4.09,0,*6D
1514725612.04,5247,7.06,72780.8,-2.65,-4.17,-4.17,0,*65
1514725613.23,5248,7.06,72790.3,-2.65,-4.17,-4.17,0,*6A
1514725614.45,5249,7.06,72802.0,-2.67,-4.13,-4.09,0,*62
1514725615.64,5250,7.06,72808.5,-2.65,-3.95,-3.95,0,*63
1514725616.83,5251,7.06,72822.0,-2.65,-4.05,-3.95,0,*6C
1514725618.04,5252,7.06,72818.5,-2.63,-4.17,-4.17,0,*67
1514725619.27,5253,7.0,72816.0,-2.63,-4.33,-4.29,0,*6D
1514725620.48,5254,7.06,72814.5,-2.67,-4.37,-4.33,0,*61
1514725621.67,5255,7.06,72806.8,-2.65,-4.33,-4.29,0,*6D
1514725622.85,5256,7.0,72810.3,-2.65,-4.45,-4.33,0,*64
1514725624.07,5257,7.06,72788.0,-2.67,-4.41,-4.37,0,*67
1514725625.26,5258,7.06,72798.5,-2.65,-4.37,-4.33,0,*6F
1514725626.47,5259,7.06,72800.8,-2.67,-4.37,-4.33,0,*6C
1514725627.7,5260,7.06,72790.8,-2.67,-4.21,-4.21,0,*62
1514725628.88,5261,7.06,72790.0,-2.65,-4.17,-4.17,0,*61
1514725630.07,5262,7.0,72804.3,-2.65,-4.05,-4.05,0,*62
1514725631.26,5263,7.06,72806.5,-2.65,-4.05,-3.95,0,*6D
1514725632.51,5264,7.06,72794.0,-2.67,-4.01,-4.09,0,*6E
1514725633.74,5265,7.06,72790.8,-2.67,-4.21,-4.21,0,*67
1514725634.96,5266,7.06,72792.0,-2.67,-4.13,-4.21,0,*65
1514725636.19,5267,7.06,72794.3,-2.67,-4.21,-4.21,0,*65
1514725637.39,5268,7.06,72782.8,-2.65,-4.21,-4.21,0,*68
1514725638.58,5269,7.0,72794.5,-2.65,-4.09,-4.09,0,*69
1514725639.81,5270,7.0,72790.8,-2.67,-4.13,-4.21,0,*62
1514725640.99,5271,7.06,72784.0,-2.65,-4.09,-4.05,0,*6C
1514725642.18,5272,7.06,72776.5,-2.65,-4.17,-4.09,0,*6C
1514725643.41,5273,7.06,72782.5,-2.67,-4.21,-4.21,0,*60
1514725644.61,5274,7.06,72792.3,-2.65,-4.21,-4.09,0,*6F
1514725645.8,5275,7.06,72812.0,-2.65,-3.95,-3.95,0,*64
1514725647.0,5276,7.0,72812.0,-2.65,-3.83,-3.91,0,*64
1514725648.2,5277,7.06,72814.0,-2.65,-3.95,-3.95,0,*66
1514725649.39,5278,7.06,72806.3,-2.65,-4.05,-3.95,0,*67
1514725650.58,5279,7.06,72796.3,-2.65,-4.05,-3.95,0,*66
1514725651.77,5280,7.06,72806.3,-2.65,-4.05,-4.05,0,*6E
1514725652.97,5281,7.06,72798.0,-2.65,-4.25,-4.21,0,*6B
1514725654.19,5282,7.06,72798.0,-2.67,-4.25,-4.25,0,*6E
1514725655.39,5283,7.06,72810.0,-2.65,-3.95,-3.91,0,*69
1514725656.61,5284,7.06,72812.5,-2.67,-4.21,-4.09,0,*62
1514725657.79,5285,7.06,72810.3,-2.65,-4.17,-4.17,0,*6B
1514725659.02,5286,7.06,72806.0,-2.67,-4.21,-4.21,0,*6A
1514725660.25,5287,7.06,72794.5,-2.67,-4.21,-4.13,0,*6A
1514725661.45,5288,7.0,72784.8,-2.65,-4.29,-4.21,0,*6E
1514725662.67,5289,7.06,72780.3,-2.67,-4.25,-4.25,0,*65
1514725663.86,5290,7.06,72776.3,-2.65,-4.21,-4.17,0,*6A
1514725665.06,5291,7.06,72774.5,-2.65,-4.21,-4.17,0,*6B
1514725666.25,5292,7.06,72776.5,-2.65,-4.21,-4.17,0,*68
1514725667.48,5293,7.06,72758.3,-2.67,-4.21,-4.21,0,*6E
1514725668.67,5294,7.06,72750.5,-2.65,-4.29,-4.29,0,*6B
1514725669.86,5295,7.0,72730.8,-2.65,-4.37,-4.37,0,*6A
1514725671.07,5296,7.06,72736.0,-2.67,-4.41,-4.41,0,*6B
1514725672.29,5297,7.06,72754.8,-2.67,-4.37,-4.37,0,*6A
1514725673.51,5298,7.06,72758.3,-2.67,-4.37,-4.37,0,*65
1514725674.73,5299,7.06,72758.5,-2.67,-4.21,-4.25,0,*60
1514725675.93,5300,7.06,72768.0,-2.69,-4.13,-4.13,0,*6B
1514725677.15,5301,7.06,72778.3,-2.67,-4.21,-4.09,0,*6E
1514725678.38,5302,7.0,72794.5,-2.67,-4.21,-4.21,0,*67
1514725679.61,5303,7.06,72794.0,-2.67,-4.33,-4.21,0,*65
1514725680.82,5304,7.06,72778.0,-2.67,-4.37,-4.25,0,*62
1514725682.04,5305,7.06,72772.0,-2.67,-4.41,-4.37,0,*61
1514725683.26,5306,7.06,72778.0,-2.67,-4.41,-4.37,0,*62
1514725684.48,5307,7.06,72780.3,-2.67,-4.13,-4.13,0,*62
1514725685.68,5308,7.06,72774.5,-2.69,-4.13,-4.21,0,*62
1514725686.9,5309,7.06,72776.0,-2.69,-4.13,-4.01,0,*61
1514725688.1,5310,7.0,72776.3,-2.69,-4.09,-3.95,0,*68
1514725689.32,5311,7.06,72778.5,-2.67,-3.87,-3.87,0,*65
1514725690.51,5312,7.06,72772.5,-2.65,-3.95,-3.87,0,*67
1514725691.7,5313,7.06,72764.0,-2.65,-3.95,-3.87,0,*66
1514725692.89,5314,7.06,72764.0,-2.65,-4.05,-4.09,0,*6E
1514725694.11,5315,7.06,72778.8,-2.65,-4.09,-4.01,0,*6B
1514725695.38,5316,7.06,72776.0,-2.67,-4.01,-4.01,0,*62
1514725696.57,5317,7.06,72774.3,-2.65,-4.05,-3.91,0,*6B
1514725697.79,5318,7.06,72782.5,-2.67,-4.13,-4.09,0,*67
1514725699.01,5319,7.06,72790.3,-2.67,-4.33,-4.25,0,*6A
1514725700.23,5320,7.06,72776.0,-2.67,-4.25,-4.25,0,*67
1514725701.45,5321,7.06,72784.5,-2.67,-4.33,-4.33,0,*66
1514725702.67,5322,7.06,72778.5,-2.67,-4.41,-4.37,0,*64
1514725703.89,5323,7.0,72770.3,-2.67,-4.41,-4.37,0,*65
1514725705.11,5324,7.06,72778.5,-2.67,-4.25,-4.25,0,*63
1514725706.39,5325,7.0,72770.0,-2.67,-4.01,-4.01,0,*62
1514725707.6,5326,7.06,72770.8,-2.65,-4.13,-4.01,0,*60
1514725708.79,5327,7.06,72776.0,-2.65,-4.05,-4.05,0,*62
1514725710.01,5328,7.06,72786.5,-2.67,-4.09,-4.09,0,*6F
1514725711.22,5329,7.06,72802.3,-2.67,-4.09,-4.09,0,*6E
1514725712.45,5330,7.06,72804.3,-2.67,-4.21,-4.21,0,*66
1514725713.68,5331,7.06,72806.3,-2.67,-4.21,-4.21,0,*67
1514725714.91,5332,7.06,72796.0,-2.67,-4.21,-4.21,0,*64
1514725716.1,5333,7.0,72776.3,-2.65,-4.09,-4.09,0,*67
1514725717.32,5334,7.06,72786.5,-2.67,-4.13,-4.13,0,*62
1514725718.54,5335,7.06,72788.8,-2.67,-4.09,-4.13,0,*68
1514725719.75,5336,7.06,72790.5,-2.65,-4.13,-4.01,0,*61
1514725720.98,5337,7.06,72790.5,-2.67,-4.21,-4.13,0,*60